Location: Street
(51.1247°N, 2.7429°W)
Time: 17:49:26
(UTC+00:00)

N. Korean satellite - Pass Details

Date: 02 November 2020
Orbit: 453 x 503 km, 97.2° (Epoch: 04 December)

Event Time Altitude Azimuth Distance (km) Brightness Sun altitude
Rises 05:52:34 0° 13° (NNE) 2,482 10.2 -11.9°
Reaches altitude 10° 05:54:37 10° 14° (NNE) 1,602 9.2 -11.5°
Maximum altitude 05:58:03 87° 102° (ESE) 462 6.4 -11.0°
Drops below altitude 10° 06:01:28 10° 193° (SSW) 1,593 9.2 -10.5°
Sets 06:03:30 0° 194° (SSW) 2,466 10.1 -10.2°
